Location: Blanot
(47.1713°N, 4.2340°E)
Time: 10:59:03
(UTC+00:00)

Gbstr 26 Del rocket - Pass Details

Date: 14 July 2020
Orbit: 492 x 1264 km, 51.8° (Epoch: 05 August)

Event Time Altitude Azimuth Distance (km) Brightness Sun altitude
Rises 01:37:24 0° 294° (WNW) 2,646 6.3 -17.0°
Reaches altitude 10° 01:39:28 10° 296° (WNW) 1,809 5.4 -16.8°
Maximum altitude 01:43:31 75° 22° (NNE) 627 3.2 -16.5°
Drops below altitude 10° 01:48:22 10° 109° (ESE) 2,151 5.9 -16.1°
Sets 01:51:00 0° 111° (ESE) 3,199 6.8 -15.9°
